Simultaneous Nadir Overpasses (SNOs) Predictions

Prediction of SNOs between METOP-A and TERRA Satellite Orbit:

Table of predicted SNOs for the next 14.0 days since TLE Epoch: 7/2/2016
Index Date (METOP-A) Time (METOP-A) Lat,Lon (METOP-A) SZA (METOP-A ) Date (TERRA) Time (TERRA) Lat,Lon (TERRA) SZA (TERRA ) Distance(km) Time Diff (sec)
1 07/03/2016 06:41:33 -81.32, -52.91 118.77 07/03/2016 06:41:43 -81.32, -52.84 118.76 1.24 10
2 07/03/2016 07:32:13 81.32, 114.73 61.28 07/03/2016 07:31:09 81.32, 114.90 61.27 2.90 64
3 07/06/2016 02:15:54 -81.32, 13.81 118.48 07/06/2016 02:15:58 -81.32, 13.70 118.50 1.78 4
4 07/06/2016 03:06:34 81.33,-178.60 61.56 07/06/2016 03:05:24 81.33,-178.58 61.52 0.21 70
5 07/08/2016 20:59:36 81.32, -87.61 61.76 07/08/2016 21:00:47 81.31, -87.77 61.76 2.84 71
6 07/0
